Wind_Speed
30 22 22 20 19 15 19 26 33 42 46 61 70 66 62 60 65 78 78 74 73 71 67 67 69 66 64 61 58 55 53 49 46 43 40 38 35 33 31 29 28 28 28 28 28
25 22 20 17 16 15 13 14 25 29 39 41 56 64 66 56 57 66 79 77 75 73 70 67 67 68 65 62 61 58 56 52 48 46 43 41 38 35 33 32 30 31 30 30 31
26 25 23 18 16 13 7 9 13 23 30 37 43 55 60 52 38 56 69 80 76 74 71 68 66 66 65 62 60 59 57 53 50 47 45 43 40 37 35 34 33 33 33 34 34
24 21 25 17 10 9 4 8 15 18 23 27 39 46 53 54 55 44 52 74 77 75 72 69 66 64 64 62 60 57 56 53 50 48 46 43 41 39 37 36 36 35 36 35 33
27 24 25 11 2 2 6 6 4 19 22 20 27 38 45 67 61 45 38 52 71 73 71 67 65 62 61 60 59 56 54 51 49 47 45 44 42 40 39 37 38 38 36 34 33
27 24 14 6 4 10 12 12 11 12 10 17 25 33 45 59 60 57 51 44 64 71 69 66 63 59 58 57 56 54 53 51 50 47 46 45 44 42 40 39 38 36 35 36 36
27 21 11 11 9 18 16 16 14 16 14 18 26 35 44 52 57 52 48 54 47 62 65 63 61 60 56 53 52 51 51 51 49 47 45 44 42 39 37 35 35 36 36 37 35
33 24 16 19 26 22 16 17 18 17 16 15 26 34 37 45 52 32 44 53 54 55 64 60 59 57 54 53 51 49 48 48 46 43 41 40 38 36 35 36 35 34 33 29 26
32 25 26 28 26 21 18 19 16 16 11 12 21 30 31 39 39 32 38 53 53 60 60 58 56 54 53 51 49 46 44 43 40 38 36 35 34 34 34 33 30 27 23 22 21
31 25 26 23 19 25 20 17 10 9 9 8 13 33 41 22 21 30 42 44 41 58 58 59 54 52 50 49 48 45 40 38 35 33 32 32 32 31 29 28 25 21 21 20 20
36 25 29 30 23 19 14 13 9 11 12 9 18 25 37 24 27 36 39 42 41 51 56 55 53 51 48 46 44 40 36 33 32 31 31 31 31 29 26 23 21 20 19 19 21
35 24 25 20 16 13 14 19 9 14 13 21 20 16 37 25 27 39 36 36 40 52 51 52 49 47 44 42 40 39 37 35 33 31 30 29 29 26 22 21 20 19 19 20 22
34 23 21 15 13 13 16 21 18 18 14 17 15 21 31 19 25 33 31 39 40 50 51 49 48 45 42 40 38 36 34 33 31 30 28 27 27 23 19 18 19 20 21 24 27
31 26 19 11 6 9 15 16 18 24 22 28 17 20 13 28 28 34 33 36 36 48 49 48 47 45 42 39 37 34 32 30 29 28 28 27 23 22 19 19 21 23 25 27 29
33 26 22 16 14 14 15 18 15 24 24 23 27 24 23 25 30 29 27 29 41 41 46 48 47 45 42 39 36 33 32 30 29 28 28 25 25 21 24 23 24 26 28 30 33
43 34 27 22 14 11 17 21 19 27 35 28 26 23 20 30 25 23 24 32 39 39 41 43 45 44 41 39 37 34 31 30 28 26 27 25 27 21 21 24 27 30 32 32 31
47 40 35 30 26 21 21 22 25 33 32 29 32 34 33 30 26 20 21 29 36 42 39 40 39 39 38 37 35 33 31 28 27 28 25 24 25 24 24 25 29 30 29 25 24
50 48 41 39 36 34 30 30 30 33 41 34 27 35 31 26 20 18 20 25 28 36 37 36 39 38 37 35 32 30 28 27 27 25 23 23 24 24 26 26 25 23 21 23 23
48 49 46 41 39 35 35 33 38 46 37 31 30 31 25 19 14 20 24 26 29 32 32 30 32 31 31 30 29 28 26 25 24 23 23 23 25 26 26 24 20 20 22 20 16
41 46 47 44 39 36 38 36 40 38 31 29 24 21 16 15 11 12 17 28 33 33 33 28 29 27 28 27 26 24 24 22 22 23 22 22 22 20 19 19 19 17 14 12 12
35 36 43 45 41 36 28 30 31 33 29 28 20 12 11 14 14 18 13 18 26 31 33 31 27 24 24 23 22 23 22 23 22 21 18 15 16 17 17 16 14 12 12 15 18
31 31 33 38 41 36 30 19 20 21 18 11 12 13 10 14 14 16 16 16 23 26 31 33 29 25 24 23 24 23 23 22 20 16 13 13 13 13 11 10 11 13 15 12 14
27 29 30 29 30 33 35 30 22 18 15 15 17 16 17 22 18 18 19 18 21 24 26 28 28 25 24 23 22 20 17 14 12 12 11 10 11 10 11 12 12 11 12 14 17
22 23 25 25 25 25 26 27 27 27 26 26 26 26 24 23 24 25 24 23 22 22 22 23 21 20 19 18 16 13 12 11 11 11 10 12 14 12 9 8 10 12 14 17 18
15 17 20 21 22 22 22 23 23 22 22 21 21 22 24 25 26 25 25 24 24 23 22 21 19 17 14 13 12 12 12 13 13 11 12 9 12 5 7 10 13 14 15 16 17
9 11 13 16 18 19 19 19 19 19 21 22 23 23 23 22 22 22 22 21 21 21 20 19 18 16 15 14 14 12 11 10 8 9 9 8 11 9 9 10 12 15 18 20 23
7 5 7 9 11 13 15 15 16 16 16 16 19 21 22 22 22 22 22 22 21 19 17 15 13 12 11 10 9 9 9 8 7 7 9 10 10 10 12 16 19 22 25 27 29
Wind_Direction
349 342 334 329 314 289 261 247 237 226 226 229 229 224 225 224 220 218 215 214 211 211 212 212 214 216 214 216 216 218 221 223 226 230 232 232 234 236 241 245 251 257 263 270 277
338 333 333 334 323 307 282 260 237 229 227 218 219 220 221 219 222 216 216 212 211 210 209 211 213 215 218 217 217 219 221 223 226 229 232 234 236 239 242 247 253 259 265 269 274
328 322 316 313 323 314 300 268 242 221 218 214 213 211 216 213 211 218 213 211 209 208 208 209 210 213 217 218 219 218 221 223 226 230 232 235 238 241 245 250 254 260 266 271 274
342 334 334 313 297 297 293 289 230 214 209 210 206 205 204 188 185 187 208 213 209 207 207 208 208 211 213 217 219 221 222 224 226 229 233 235 240 243 247 252 257 261 267 270 270
331 329 332 337 210 338 32 16 146 179 187 188 197 196 199 188 190 182 182 205 207 207 206 206 208 208 212 215 217 219 223 225 228 230 234 237 241 244 248 253 258 263 264 264 265
348 341 360 72 97 91 70 67 104 159 165 182 177 184 187 188 197 210 202 188 205 204 204 205 205 206 209 212 216 218 222 225 227 231 234 238 242 246 250 255 258 260 261 264 268
7 11 55 80 64 97 86 80 133 147 141 157 174 182 195 182 176 189 194 215 204 200 202 203 203 204 204 207 213 217 220 225 227 230 234 239 243 248 251 254 256 258 263 266 270
21 39 71 80 92 79 80 89 100 125 138 148 178 180 202 188 188 179 185 196 197 199 198 200 201 202 203 206 207 212 217 222 225 229 233 238 242 246 249 252 257 261 264 263 267
32 54 83 78 80 93 98 88 82 120 147 162 180 195 192 164 180 189 177 188 189 187 195 196 197 199 200 202 207 211 217 221 223 227 230 235 238 241 245 250 254 255 257 260 260
42 67 87 85 78 80 83 90 82 73 105 134 170 199 192 192 187 175 174 183 179 180 188 193 193 196 198 201 204 207 211 217 221 224 226 230 233 236 241 244 248 247 249 254 259
37 76 92 88 86 83 82 80 79 78 79 116 101 176 199 137 163 155 167 176 178 184 181 188 189 191 195 199 200 201 205 211 216 220 223 226 229 233 239 239 243 249 256 264 273
40 70 94 99 84 81 79 60 59 73 90 86 124 146 183 125 142 158 165 170 184 179 179 180 185 189 192 194 197 201 201 205 211 217 221 223 226 233 233 237 245 255 266 277 285
45 66 86 94 87 88 72 57 54 81 109 110 118 167 179 147 131 161 166 168 183 176 176 177 182 183 187 191 194 199 202 205 209 214 219 220 227 230 235 245 254 262 270 277 281
43 48 50 60 54 57 66 44 78 106 115 105 103 162 143 129 144 153 167 174 175 176 178 176 179 181 185 187 191 194 200 204 207 212 218 221 226 234 239 245 255 265 273 278 281
35 40 42 43 42 51 67 75 95 113 101 92 98 124 95 119 126 126 164 179 180 180 179 178 178 180 182 186 188 193 198 204 209 213 220 226 231 240 248 256 263 268 273 276 279
41 42 38 35 22 67 82 90 92 97 103 95 106 103 106 114 116 134 147 176 176 183 181 181 178 180 182 185 190 193 198 204 210 217 224 231 237 235 252 264 271 275 278 281 283
40 50 49 46 51 55 87 106 97 96 101 107 107 101 108 110 110 120 147 162 178 178 183 179 179 179 182 186 190 194 199 205 213 221 228 238 248 259 262 267 270 273 275 276 281
42 46 53 54 67 80 95 106 111 101 115 117 104 115 112 108 110 120 127 161 172 175 177 180 179 180 182 187 191 194 201 209 218 226 235 245 255 266 269 269 268 269 278 289 289
43 47 53 58 67 80 78 101 101 103 104 98 100 105 103 107 139 152 155 156 161 172 174 181 178 177 181 184 189 195 204 213 225 235 245 255 264 264 263 265 268 279 285 282 281
44 47 53 60 70 79 83 90 91 98 105 91 83 100 104 101 108 164 166 165 169 169 171 175 176 175 177 184 192 200 211 221 233 244 252 256 255 257 263 274 277 273 269 272 278
42 48 53 59 67 75 84 75 72 73 75 65 64 75 94 98 126 142 131 163 172 171 176 173 177 177 184 190 199 210 218 225 233 241 247 248 257 268 272 266 257 259 270 278 279
42 45 55 61 67 74 79 84 82 85 84 60 62 67 47 62 109 133 147 141 171 173 171 177 180 183 192 202 211 215 220 226 236 234 240 252 255 254 245 248 259 270 277 276 287
44 45 49 59 67 73 78 85 90 87 85 76 75 77 73 86 108 116 126 134 148 165 168 172 176 179 185 192 200 209 210 207 215 226 236 224 236 235 250 262 270 272 280 287 286
45 47 51 53 58 67 73 80 86 88 87 84 82 80 81 88 92 96 104 114 127 145 156 164 170 174 177 181 180 182 196 208 200 201 208 222 242 256 260 265 274 280 284 285 288
40 48 52 54 54 58 65 73 76 77 78 80 80 81 84 85 87 92 100 106 112 119 125 132 138 148 159 171 180 185 177 177 194 210 230 237 250 253 263 265 270 276 281 287 291
26 43 50 55 57 57 59 60 66 75 79 79 80 82 84 87 91 94 96 98 104 112 119 129 137 146 151 158 163 172 191 206 200 206 229 239 257 281 287 284 288 293 300 302 301
17 16 45 53 61 62 63 62 62 63 67 76 87 88 87 87 88 92 97 100 103 107 111 117 126 135 146 156 168 175 188 201 209 221 245 260 280 288 291 293 293 299 302 303 301
Height
5603 5596 5592 5588 5584 5582 5582 5582 5586 5590 5597 5609 5622 5636 5646 5656 5667 5681 5698 5711 5724 5735 5748 5758 5768 5777 5785 5795 5802 5810 5816 5822 5829 5835 5841 5844 5848 5850 5853 5855 5857 5859 5860 5861 5861
5602 5595 5590 5586 5582 5579 5578 5578 5579 5583 5590 5598 5607 5621 5633 5645 5657 5669 5682 5696 5710 5724 5737 5749 5759 5769 5779 5788 5795 5803 5811 5816 5823 5829 5834 5838 5842 5846 5849 5851 5853 5855 5856 5857 5857
5600 5594 5587 5583 5580 5576 5574 5574 5575 5578 5583 5589 5598 5610 5623 5639 5652 5659 5666 5682 5697 5713 5726 5738 5748 5760 5773 5781 5790 5798 5805 5811 5817 5823 5829 5833 5837 5841 5844 5846 5848 5850 5851 5851 5851
5596 5589 5583 5578 5577 5575 5573 5570 5571 5574 5578 5584 5591 5603 5615 5631 5641 5648 5656 5672 5691 5704 5717 5730 5742 5754 5764 5774 5784 5792 5800 5806 5812 5818 5823 5829 5833 5836 5839 5841 5843 5844 5845 5845 5846
5591 5585 5578 5571 5573 5574 5573 5571 5569 5572 5578 5584 5590 5599 5609 5622 5634 5642 5652 5665 5681 5697 5710 5724 5735 5746 5757 5768 5778 5786 5795 5801 5807 5813 5818 5824 5828 5831 5834 5836 5837 5838 5839 5839 5839
5587 5581 5576 5573 5575 5575 5575 5573 5574 5577 5581 5584 5590 5598 5606 5618 5631 5638 5648 5658 5672 5688 5703 5716 5729 5740 5752 5762 5772 5781 5789 5796 5802 5808 5814 5818 5822 5826 5829 5830 5831 5832 5833 5833 5833
5587 5580 5577 5577 5578 5578 5579 5578 5580 5582 5585 5588 5593 5598 5603 5613 5625 5637 5648 5658 5669 5683 5699 5711 5722 5734 5746 5756 5766 5776 5783 5790 5797 5803 5808 5814 5818 5821 5823 5825 5826 5826 5827 5827 5827
5590 5585 5583 5583 5583 5584 5584 5585 5586 5587 5590 5594 5597 5600 5603 5614 5622 5631 5641 5652 5663 5677 5691 5705 5717 5730 5741 5752 5760 5770 5778 5785 5792 5798 5803 5809 5813 5816 5818 5820 5820 5821 5821 5822 5822
5598 5592 5591 5590 5591 5590 5590 5592 5593 5594 5596 5599 5601 5603 5609 5616 5624 5630 5638 5648 5659 5670 5686 5700 5713 5726 5737 5747 5757 5766 5775 5782 5788 5794 5799 5804 5807 5810 5812 5814 5815 5816 5817 5818 5819
5606 5601 5599 5599 5599 5598 5599 5599 5598 5600 5601 5602 5603 5607 5612 5618 5624 5628 5640 5650 5659 5668 5683 5698 5712 5724 5734 5744 5754 5763 5771 5779 5785 5791 5795 5798 5802 5804 5806 5809 5811 5812 5813 5815 5816
5614 5609 5607 5607 5607 5606 5605 5605 5604 5604 5604 5603 5605 5608 5617 5620 5626 5632 5642 5651 5662 5674 5684 5698 5710 5720 5731 5743 5752 5761 5769 5776 5782 5787 5790 5794 5797 5800 5802 5805 5807 5809 5811 5812 5813
5623 5618 5615 5613 5612 5611 5609 5608 5607 5609 5608 5608 5609 5614 5621 5624 5630 5639 5647 5656 5665 5675 5686 5698 5709 5721 5732 5741 5749 5757 5764 5771 5778 5783 5787 5790 5794 5796 5799 5801 5803 5806 5807 5808 5808
5631 5627 5623 5620 5618 5616 5613 5612 5610 5610 5610 5612 5615 5617 5622 5630 5634 5642 5653 5660 5667 5678 5687 5699 5711 5721 5731 5739 5747 5755 5763 5769 5776 5780 5784 5787 5790 5793 5796 5798 5799 5801 5802 5802 5802
5637 5633 5628 5625 5624 5621 5618 5617 5615 5615 5615 5618 5620 5625 5631 5635 5643 5647 5654 5665 5672 5680 5689 5697 5709 5718 5728 5737 5746 5753 5761 5767 5773 5777 5782 5784 5788 5790 5792 5794 5795 5795 5795 5795 5795
5644 5637 5632 5628 5625 5623 5623 5621 5620 5621 5623 5627 5630 5634 5638 5643 5648 5653 5661 5668 5677 5684 5693 5700 5708 5718 5727 5736 5744 5752 5758 5764 5769 5774 5778 5782 5785 5786 5787 5788 5790 5790 5790 5789 5788
5651 5644 5638 5633 5628 5627 5627 5627 5626 5628 5628 5632 5636 5640 5645 5649 5654 5659 5665 5672 5678 5687 5693 5702 5708 5717 5726 5735 5742 5749 5756 5762 5766 5770 5775 5777 5781 5784 5784 5784 5784 5784 5783 5782 5781
5661 5652 5644 5640 5635 5631 5632 5633 5635 5634 5636 5642 5646 5649 5654 5656 5662 5666 5668 5674 5680 5687 5695 5702 5710 5718 5726 5734 5741 5747 5753 5759 5764 5768 5772 5774 5777 5778 5779 5779 5779 5778 5777 5776 5775
5672 5663 5654 5649 5644 5641 5639 5641 5642 5642 5646 5648 5653 5658 5661 5664 5667 5670 5672 5677 5683 5691 5698 5704 5711 5717 5724 5732 5740 5746 5752 5757 5761 5765 5769 5771 5772 5773 5773 5772 5772 5772 5771 5771 5770
5684 5676 5667 5659 5656 5652 5652 5653 5649 5652 5656 5661 5663 5666 5670 5671 5674 5672 5675 5679 5684 5692 5700 5707 5713 5719 5726 5733 5740 5745 5750 5755 5759 5762 5765 5767 5768 5767 5766 5766 5767 5768 5767 5766 5765
5694 5687 5679 5672 5665 5666 5669 5664 5664 5667 5669 5672 5674 5674 5675 5676 5677 5677 5679 5681 5687 5693 5701 5709 5715 5721 5727 5733 5739 5744 5749 5754 5757 5759 5762 5762 5762 5762 5763 5763 5763 5763 5762 5762 5761
5702 5698 5691 5685 5680 5677 5680 5677 5674 5673 5674 5675 5676 5675 5676 5677 5677 5679 5682 5686 5690 5695 5702 5709 5717 5724 5728 5734 5739 5744 5747 5751 5753 5756 5758 5758 5758 5758 5758 5758 5758 5758 5758 5758 5757
5711 5707 5701 5696 5693 5692 5688 5686 5686 5685 5683 5684 5682 5681 5680 5681 5680 5683 5686 5689 5693 5698 5704 5710 5717 5723 5730 5734 5738 5742 5745 5747 5750 5754 5755 5755 5756 5755 5755 5755 5755 5756 5755 5754 5753
5717 5713 5709 5704 5703 5700 5698 5696 5694 5693 5693 5692 5691 5690 5687 5684 5686 5687 5689 5692 5696 5702 5707 5713 5718 5723 5728 5733 5736 5739 5742 5745 5748 5749 5751 5752 5752 5752 5752 5753 5753 5752 5751 5751 5749
5723 5720 5716 5713 5710 5707 5705 5703 5702 5700 5699 5698 5697 5695 5694 5694 5693 5693 5695 5697 5700 5705 5710 5715 5719 5724 5728 5732 5735 5738 5741 5743 5745 5747 5748 5748 5748 5749 5750 5750 5749 5749 5748 5746 5744
5727 5725 5721 5718 5716 5713 5711 5708 5706 5705 5704 5702 5701 5701 5701 5700 5701 5701 5702 5704 5707 5711 5714 5718 5722 5726 5729 5732 5735 5738 5740 5741 5743 5744 5745 5747 5746 5747 5747 5746 5746 5745 5743 5742 5739
5729 5727 5725 5722 5720 5719 5717 5714 5712 5710 5709 5708 5707 5706 5705 5706 5706 5707 5709 5711 5713 5716 5718 5721 5725 5727 5730 5732 5734 5736 5738 5740 5741 5742 5743 5744 5744 5744 5744 5743 5742 5740 5738 5736 5733
5729 5728 5726 5725 5724 5722 5721 5720 5718 5717 5715 5713 5712 5711 5711 5712 5712 5713 5714 5715 5718 5720 5722 5725 5727 5729 5731 5733 5735 5737 5738 5740 5741 5742 5742 5742 5743 5742 5740 5738 5737 5735 5732 5730 5727